Location: São Paulo
(23.5507°S, 46.6334°W)
Time: 09:41:25
(UTC-03:00)

Explorer 7 - Pass Details

Date: 20 February 2026
Orbit: 430 x 541 km, 50.2° (Epoch: 11 March)

Event Time Altitude Azimuth Distance (km) Brightness Sun altitude
Rises 10:36:04 0° 244° (WSW) 2,482 9.9 62.1°
Reaches altitude 10° 10:38:50 10° 265° (W) 1,579 9.0 62.7°
Maximum altitude 10:41:07 16° 305° (NW) 1,232 8.7 63.2°
Drops below altitude 10° 10:43:20 10° 346° (NNW) 1,540 9.3 63.6°
Sets 10:46:00 0° 8° (N) 2,387 10.3 64.2°
